"Time","Temp","Dewpoint","Humidity","Pressure","Direction","Speed","Gust","Precip","PrecipRate"
"00:04:59","72.2","70.5","94.4","30.00","166","0","0","0.00","0.16"
"00:09:58","72.1","70.5","94.7","30.00","166","0","0","0.00","0.16"
"00:14:56","72.1","70.6","95","30.00","166","0","0","0.00","0.16"
"00:19:10","72","70.5","95","30.00","166","0","0","0.00","0.16"
"00:24:56","72","70.5","95","30.00","166","0","0","0.01","0.16"
"00:29:57","71.9","70.4","95","30.00","166","0","0","0.01","0.17"
"00:34:59","71.8","70.3","95","30.00","166","0","0","0.01","0.11"
"00:39:59","71.8","70.5","95.7","30.00","166","0","0","0.01","0.04"
"00:44:57","71.8","70.6","96","30.00","166","0","0","0.01","0.02"
"00:49:59","71.7","70.5","96","30.00","166","0","0","0.01","0.01"
"00:54:57","71.7","70.5","96","30.00","166","0","0","0.02","0.02"
"00:59:58","71.8","70.6","96.1","30.00","166","0","0","0.03","0.03"
"01:04:59","71.9","71","97","29.99","166","0","0","0.03","0.03"
"01:09:57","72","70.8","96.1","29.99","166","0","0","0.03","0.03"
"01:14:56","72.1","71","96.5","29.99","166","0","0","0.04","0.04"
"01:19:58","72.1","71.2","97","29.99","166","0","0","0.04","0.04"
"01:24:59","72.2","71.2","96.9","29.99","166","0.3","2.4","0.04","0.04"
"01:29:57","72.2","71","96","29.99","166","0.5","2.4","0.04","0.03"
"01:34:59","72.2","71","96","29.99","166","0","0","0.04","0.03"
"01:39:58","72.1","70.9","96","29.99","166","0","0","0.06","0.04"
"01:44:59","72","70.8","96","29.99","166","0","0","0.06","0.05"
"01:49:57","72","71.1","96.8","29.98","166","0","0","0.07","0.06"
"01:54:59","72.1","71.2","97","29.98","166","0","0","0.07","0.06"
"01:59:56","72.1","71.2","97","29.98","166","0","0","0.07","0.05"
"02:04:57","72.1","71.2","97","29.97","166","0","0","0.07","0.04"
"02:09:59","72.1","71.2","97","29.97","166","0","0","0.07","0.04"
"02:14:59","72.1","71.2","97","29.97","166","0","0","0.07","0.04"
"02:19:56","72.1","71.2","97","29.97","166","0","0","0.07","0.03"
"02:24:58","72","71.1","97","29.97","166","0","0","0.08","0.04"
"02:29:56","72","71.1","97","29.97","166","0","0","0.09","0.05"
"02:34:58","72","71.1","97","29.96","166","0","0","0.11","0.06"
"02:39:57","72","71.1","97","29.96","166","0","0","0.13","0.08"
"02:44:58","71.9","71","97","29.96","166","0","0","0.17","0.10"
"02:49:56","71.9","71","97","29.96","166","0","0","0.22","0.14"
"02:54:57","71.9","71","97","29.96","166","0","1.2","0.24","0.17"
"02:59:59","71.9","71","97","29.96","166","0","0","0.25","0.18"
"03:04:57","71.9","71","97","29.95","166","0","0","0.26","0.19"
"03:09:59","71.9","71","97","29.95","166","0","0","0.28","0.20"
"03:14:58","71.9","71","97","29.95","166","0","1.2","0.29","0.22"
"03:19:56","71.8","70.9","97","29.95","166","0.2","1.2","0.32","0.25"
"03:24:58","71.8","70.9","97","29.95","166","0","1.2","0.34","0.26"
"03:29:59","71.8","70.8","97","29.95","166","0","0","0.37","0.27"
"03:34:57","71.7","70.8","97","29.94","166","0","0","0.41","0.31"
"03:39:56","71.7","70.8","97","29.94","166","0","0","0.43","0.31"
"03:44:58","71.7","70.8","97","29.94","166","0","0","0.43","0.30"
"03:49:59","71.7","70.8","97","29.93","166","0.1","1.2","0.43","0.26"
"03:54:57","71.7","70.8","97","29.93","166","0","1.2","0.43","0.21"
"03:59:58","71.7","70.8","97","29.93","166","0","0","0.44","0.19"
"04:04:59","71.7","70.8","97","29.92","166","0","1.2","0.44","0.19"
"04:09:57","71.7","70.8","97","29.92","166","0.3","1.2","0.48","0.20"
"04:14:56","71.7","70.8","97","29.93","166","0","1.2","0.57","0.25"
"04:19:58","71.7","70.8","97","29.93","165","0.1","1.2","0.66","0.33"
"04:24:59","71.5","70.6","97","29.93","165","0","0","0.69","0.35"
"04:29:57","71.5","70.6","97","29.93","165","0","0","0.71","0.35"
"04:34:59","71.5","70.6","97","29.92","165","0","2.4","0.72","0.34"
"04:39:58","71.5","70.6","97","29.92","165","0.8","3.6","0.73","0.31"
"04:44:56","71.5","70.6","97","29.92","154","2.5","7.2","0.76","0.33"
"04:49:57","71.6","70.7","97","29.92","145","2.4","5.8","0.79","0.36"
"04:54:59","71.6","70.7","97","29.92","148","0.9","3.6","0.80","0.36"
"04:59:56","71.6","70.7","97","29.92","148","0.9","3.5","0.80","0.37"
"05:04:57","71.7","70.8","97","29.92","148","0.8","2.4","0.80","0.36"
"05:09:56","71.7","70.8","97","29.92","148","0.2","1.2","0.80","0.36"
"05:14:59","71.7","71","97.7","29.92","148","0","1.2","0.81","0.32"
"05:19:56","71.7","71","97.7","29.92","148","0","2.4","0.82","0.24"
"05:24:58","71.7","71","97.7","29.92","148","0.4","2.4","0.82","0.16"
"05:29:59","71.7","71.1","98","29.92","148","0.5","2.4","0.83","0.14"
"05:34:57","71.6","71","97.8","29.92","148","0","0","0.84","0.12"
"05:39:57","71.6","70.8","97.2","29.92","148","0.9","3.6","0.85","0.12"
"05:44:58","71.5","70.6","97","29.92","148","0.4","3.5","0.86","0.12"
"05:49:56","71.4","70.5","97","29.92","148","0.5","3.6","0.87","0.09"
"05:54:57","71.2","70.3","97","29.92","145","1.5","3.6","0.88","0.09"
"05:59:59","71","70.1","97","29.92","336","1.5","6","0.89","0.09"
"06:04:56","70.8","69.9","97","29.92","338","1.9","4.8","0.91","0.11"
"06:09:56","70.7","69.8","97","29.92","340","2","6","0.91","0.11"
"06:14:59","70.6","69.7","97","29.92","339","1.3","4.8","0.92","0.11"
"06:19:57","70.5","69.6","97","29.92","340","2.2","4.8","0.92","0.11"
"06:24:59","70.4","69.7","97.7","29.92","341","1.9","6","0.93","0.11"
"06:29:57","70.4","69.8","98","29.92","342","1.3","4.8","0.94","0.11"
"06:34:59","70.4","69.7","97.7","29.92","342","0.9","4.8","0.95","0.12"
"06:39:59","70.4","69.8","97.9","29.92","7","1.1","4.6","0.95","0.11"
"06:44:57","70.4","69.6","97.3","29.93","29","0.8","4.8","0.96","0.10"
"06:49:56","70.3","69.4","97","29.93","11","0.9","3.6","0.96","0.10"
"06:54:58","70.3","69.5","97.2","29.93","338","2.3","6","1.00","0.11"
"06:59:56","70.3","69.4","97","29.93","308","2.5","7.2","1.03","0.14"
"07:04:57","70.2","69.3","97","29.92","351","1.9","6.9","1.05","0.14"
"07:09:59","70.2","69.5","97.4","29.92","348","1","3.6","1.05","0.14"
"07:14:59","70.2","69.6","98","29.92","344","0.8","4.8","1.06","0.14"
"07:19:57","70.2","69.6","98","29.92","344","0.6","3.6","1.06","0.14"
"07:24:58","70.3","69.7","98","29.92","345","1","4.8","1.07","0.14"
"07:29:56","70.3","69.7","98","29.93","345","1.8","4.6","1.07","0.14"
"07:34:54","70.3","69.7","98","29.93","344","1.7","4.8","1.07","0.13"
"07:39:57","70.3","69.7","98","29.93","344","2.1","4.8","1.08","0.13"
"07:44:58","70.3","69.7","98","29.93","343","1.5","6","1.08","0.13"
"07:49:56","70.3","69.7","98","29.93","343","1.9","5.8","1.08","0.12"
"07:54:57","70.3","69.7","98","29.93","342","2.4","6","1.08","0.12"
"07:59:59","70.3","69.7","98","29.93","335","2.8","8.4","1.08","0.08"
"08:04:56","70.3","69.7","98","29.93","333","2.4","4.8","1.08","0.05"
"08:09:58","70.3","69.7","98","29.93","339","2.3","7.2","1.08","0.03"
"08:14:59","70.4","69.8","98","29.93","340","2.3","6","1.08","0.03"
"08:19:57","70.4","69.8","98","29.93","328","1.7","4.6","1.08","0.02"
"08:24:56","70.4","69.8","98","29.93","343","2.4","7.2","1.08","0.02"
"08:29:59","70.5","69.9","98","29.93","343","1.8","4.8","1.08","0.01"
"08:34:58","70.6","70","98","29.93","343","1.5","4.8","1.08","0.01"
"08:39:59","70.8","70.2","98","29.93","342","1.7","4.8","1.08","0.01"
"08:44:58","70.8","70.2","98","29.94","323","3.4","8.4","1.08","0.00"
"08:49:56","70.8","70.2","98","29.94","341","1.6","8.1","1.08","0.00"
"08:54:07","70.9","70.3","98","29.94","337","2.9","6","1.08","0.00"
"08:59:57","70.9","70.3","98","29.94","328","2","4.6","1.08","0.00"
"09:04:58","71","70.4","98","29.94","328","1.3","4.8","1.08","0.00"
"09:09:56","70.9","70.1","97.2","29.94","336","3.2","7.2","1.08","0.00"
"09:14:59","71","70.3","97.6","29.94","348","1.7","6","1.08","0.00"
"09:19:57","71.2","70.6","98","29.94","339","2.9","6","1.08","0.00"
"09:24:59","71.3","70.6","97.7","29.94","335","2.8","7.2","1.08","0.00"
"09:29:57","71.4","70.5","97","29.94","331","1.7","6","1.08","0.00"
"09:34:58","71.6","70.7","97","29.94","310","1.8","6","1.08","0.00"
"09:39:58","71.8","71.1","97.7","29.94","302","2.1","4.8","1.08","0.00"
"09:44:59","72.1","71.3","97.3","29.95","312","2.8","7.2","1.08","0.00"
"09:49:57","72.1","71.2","96.8","29.95","343","3.2","10.8","1.08","0.00"
"09:54:58","72.2","71.2","96.6","29.95","341","3.1","8.4","1.08","0.00"
"09:59:56","72.4","71.4","96.6","29.95","328","3.2","8.4","1.08","0.00"
"10:04:57","72.8","71.6","96.1","29.95","301","3","8.4","1.08","0.00"
"10:09:59","73","71.7","95.7","29.95","352","2.7","8.1","1.08","0.00"
"10:14:58","73.1","71.5","94.7","29.95","328","2.4","7.2","1.08","0.00"
"10:19:59","73.1","71.5","94.5","29.95","328","2.6","14.4","1.08","0.00"
"10:24:57","73.2","71","92.7","29.95","341","6.5","16.1","1.08","0.00"
"10:29:58","73.5","71.5","93.4","29.96","333","2.9","10.8","1.08","0.00"
"10:34:56","73.9","71.8","93","29.96","309","2.2","6.9","1.08","0.00"
"10:39:59","74.4","72","92.5","29.96","275","3.5","12","1.08","0.00"
"10:44:57","75.1","72.3","91","29.96","309","2.9","8.1","1.08","0.00"
"10:49:39","75.5","72.4","90","29.96","346","3","10.8","1.08","0.00"
"10:54:56","75.6","71.9","88.6","29.96","313","2.6","7.2","1.08","0.00"
"10:59:58","75.6","71.8","88.2","29.96","334","1.6","4.8","1.08","0.00"
"11:04:59","75.8","72.2","88.6","29.96","331","1.9","6","1.08","0.00"
"11:09:57","76.5","72.5","87.4","29.96","314","3.7","13.2","1.08","0.00"
"11:14:57","76.6","71.7","84.9","29.96","277","3.5","8.4","1.08","0.00"
"11:19:59","76.5","71.7","85.2","29.96","304","5.3","15","1.08","0.00"
"11:24:56","76.6","71.5","84.4","29.96","315","5.2","20.7","1.08","0.00"
"11:29:58","77.1","71.8","83.9","29.96","330","5.3","12.7","1.08","0.00"
"11:34:56","77.5","71.7","82.3","29.95","323","5.1","13.2","1.08","0.00"
"11:39:59","78.1","72.4","82.8","29.95","333","4.9","12","1.08","0.00"
"11:44:57","78.7","72.6","81.5","29.95","310","4.6","15","1.08","0.00"
"11:49:56","78.9","72","79.6","29.95","312","6.2","18.4","1.08","0.00"
"11:54:59","78.8","71.7","78.8","29.95","323","5","11.5","1.08","0.00"
"11:59:22","79.3","72.4","79.7","29.95","336","5","16.1","1.08","0.00"
"12:04:58","79.6","72.3","78.5","29.95","300","5.5","13.2","1.08","0.00"
"12:09:57","79.6","72.3","78.6","29.95","327","3.7","13.2","1.08","0.00"
"12:14:59","80","72.5","78","29.95","336","5.9","15","1.08","0.00"
"12:19:56","80.2","72.5","77.6","29.95","333","4.8","13.2","1.08","0.00"
"12:24:56","80.3","72.1","76.1","29.95","324","5.3","15","1.08","0.00"
"12:29:57","80.3","72.2","76.5","29.95","341","3.9","8.4","1.08","0.00"
"12:34:57","80.2","72","76.1","29.95","332","5.2","16.1","1.08","0.00"
"12:39:56","80.7","72.3","75.9","29.95","343","6.7","15.6","1.08","0.00"
"12:44:56","81.2","72.6","75.2","29.95","340","4.9","13.2","1.08","0.00"
"12:49:56","82","72.9","74.2","29.94","337","4.3","13.2","1.08","0.00"
"12:54:57","82.2","73.1","74","29.94","303","3.7","12.7","1.08","0.00"
"12:59:57","82.2","72.9","73.4","29.94","328","3.1","12","1.08","0.00"
"13:04:56","81.8","72","72.2","29.94","337","3.5","8.4","1.08","0.00"
"13:09:56","81.7","72.3","73.3","29.94","298","3.9","13.2","1.08","0.00"
"13:14:58","82.2","72.6","72.9","29.94","336","3.1","8.4","1.08","0.00"
"13:19:59","82.8","72.9","72.2","29.94","349","2.7","10.8","1.08","0.00"
"13:24:59","82.5","71.9","70.4","29.94","322","2.8","8.4","1.08","0.00"
"13:29:55","82.2","72.6","72.8","29.95","317","3.6","10.8","1.08","0.00"
"13:34:56","81.7","71.9","72.3","29.95","292","3.3","10.8","1.08","0.00"
"13:39:58","81.3","72","73.3","29.95","339","4","12","1.08","0.00"
"13:44:59","81","71.9","74","29.95","338","3.4","12","1.08","0.00"
"13:49:59","81.1","72","74.2","29.94","322","3.9","13.2","1.08","0.00"
"13:54:59","81.4","72","73.5","29.94","316","4.5","12.7","1.08","0.00"
"13:59:56","81.6","72.5","74","29.94","325","4.3","8.4","1.08","0.00"
"14:04:59","82.2","72.9","73.5","29.94","322","3.5","9.6","1.08","0.00"
"14:09:59","83","73.7","73.7","29.94","317","3.5","12","1.08","0.00"
"14:14:56","83.7","73.5","71.4","29.94","284","4","11.5","1.08","0.00"
"14:19:57","83.8","73.1","70.1","29.93","326","6.8","16.1","1.08","0.00"
"14:24:57","83.9","73.1","70.2","29.93","259","3.9","13.2","1.08","0.00"
"14:29:58","83.6","72.5","69.3","29.93","341","4.4","15","1.08","0.00"
"14:34:58","83.5","72.8","70.1","29.93","323","3.8","15","1.08","0.00"
"14:39:56","83.6","73.3","71.2","29.93","324","4.2","10.4","1.08","0.00"
"14:44:57","83.8","73.4","71.1","29.93","329","2.4","10.8","1.08","0.00"
"14:49:57","83.9","72.9","69.6","29.92","308","3.8","10.8","1.08","0.00"
"14:54:58","83.8","72.9","69.9","29.92","319","3.8","13.2","1.08","0.00"
"14:59:58","83.4","72.4","69.4","29.92","328","5.6","12.7","1.08","0.00"
"15:04:58","83.4","72.8","70.6","29.92","324","5.2","12","1.08","0.00"
"15:09:58","83.5","73","70.7","29.92","307","3.3","11.5","1.08","0.00"
"15:14:56","83.5","73.1","71","29.92","313","2.5","8.4","1.08","0.00"
"15:19:56","83.8","73.3","70.9","29.92","308","3.4","8.4","1.08","0.00"
"15:24:56","84.3","72.7","68.3","29.92","313","3.6","12","1.08","0.00"
"15:29:56","84.7","72.5","67","29.92","310","4.2","8.4","1.08","0.00"
"15:34:57","85","73.2","68","29.91","334","3.5","10.8","1.08","0.00"
"15:39:59","85.7","73.1","66.3","29.91","319","3.7","7.2","1.08","0.00"
"15:44:59","86.1","72.8","64.8","29.91","328","4.6","12","1.08","0.00"
"15:49:56","86.1","71.7","62.4","29.90","334","5.1","12","1.08","0.00"
"15:54:56","86.2","72","62.9","29.90","341","4.3","14.4","1.08","0.00"
"15:59:58","86.3","71.8","62","29.90","340","4.5","15","1.08","0.00"
"16:04:57","86.6","72.5","63","29.90","322","3","12.7","1.08","0.00"
"16:09:57","86.3","72","62.6","29.90","334","3.4","8.4","1.08","0.00"
"16:14:59","85.5","71.9","64","29.91","338","2.2","6.9","1.08","0.00"
"16:19:59","85","71.9","64.9","29.91","347","2.2","4.8","1.08","0.00"
"16:24:56","84.8","71.9","65.4","29.91","16","2.2","6","1.08","0.00"
"16:29:56","84.5","71.9","66.1","29.91","337","1.8","4.8","1.08","0.00"
"16:34:57","84.2","71.6","66","29.90","337","2.3","6","1.08","0.00"
"16:39:59","84.2","71.7","66.2","29.90","335","3.4","8.4","1.08","0.00"
"16:44:59","84.3","71.4","65.5","29.90","341","3.1","12","1.08","0.00"
"16:49:56","84.2","71.4","65.6","29.90","329","2.8","6","1.08","0.00"
"16:54:56","83.9","71.3","66","29.90","338","2.8","6","1.08","0.00"
"16:59:57","83.7","71.2","66.2","29.91","344","3.1","8.4","1.08","0.00"
"17:04:56","83.6","71.7","67.5","29.91","337","2","7.2","1.08","0.00"
"17:09:56","83.5","71.5","67.3","29.91","331","2.7","8.4","1.08","0.00"
"17:14:58","83.4","71.7","68","29.91","328","1","3.6","1.08","0.00"
"17:19:58","83.4","71.8","68.4","29.91","328","1.1","4.8","1.08","0.00"
"17:24:59","83.4","72.1","68.7","29.91","328","0.9","4.8","1.08","0.00"
"17:29:59","83.6","72.6","69.6","29.91","337","1","4.8","1.08","0.00"
"17:34:56","83.8","72.2","68.2","29.91","332","2.6","6","1.08","0.00"
"17:39:59","83.9","72","67.6","29.91","337","2.7","10.8","1.08","0.00"
"17:44:59","83.7","71.8","67.5","29.92","324","2.9","8.4","1.08","0.00"
"17:49:56","83.6","71.6","67.4","29.92","330","2","7.2","1.08","0.00"
"17:54:56","83.4","71.4","67.2","29.92","339","1.1","6.9","1.08","0.00"
"17:59:57","83.2","71.6","68.2","29.92","339","1.1","4.8","1.08","0.00"
"18:04:57","82.9","71.4","68.3","29.92","340","1.6","3.6","1.08","0.00"
"18:09:57","82.6","71.4","68.8","29.92","340","1","3.6","1.08","0.00"
"18:14:56","82.3","71.1","68.9","29.92","340","0.8","3.6","1.08","0.00"
"18:19:56","82.1","71.3","70","29.92","340","1.1","3.6","1.08","0.00"
"18:24:57","81.9","71.2","70.1","29.92","340","1.4","3.6","1.08","0.00"
"18:29:57","81.8","71.5","71","29.92","339","1.3","4.8","1.08","0.00"
"18:34:58","81.6","71","70.2","29.92","339","1.6","3.6","1.08","0.00"
"18:39:56","81.4","70.7","70","29.92","339","0.9","3.6","1.08","0.00"
"18:44:57","81.3","70.8","70.4","29.92","340","1.2","3.5","1.08","0.00"
"18:49:58","81.1","70.8","71","29.92","340","0.4","2.4","1.08","0.00"
"18:54:56","81","70.8","71.2","29.92","340","0","1.2","1.08","0.00"
"18:59:57","80.9","71","72.2","29.92","340","0","0","1.08","0.00"
"19:04:57","80.7","71.2","73.1","29.92","340","0","0","1.08","0.00"
"19:09:58","80.3","71.3","74","29.92","340","0","0","1.08","0.00"
"19:14:57","80.1","71.1","74","29.92","340","0","0","1.08","0.00"
"19:19:59","79.8","70.9","74.2","29.92","340","0","0","1.08","0.00"
"19:24:56","79.6","71.3","75.7","29.92","340","0.2","3.6","1.08","0.00"
"19:29:58","79.4","71.2","76.2","29.93","340","0.9","4.8","1.08","0.00"
"19:34:59","79.1","71.3","77","29.93","340","0","0","1.08","0.00"
"19:39:58","79","71.2","77.1","29.93","340","0","0","1.08","0.00"
"19:44:59","78.8","71.4","78.1","29.94","340","0","0","1.08","0.00"
"19:49:59","78.6","71.6","79.2","29.94","340","0","0","1.08","0.00"
"19:54:59","78.4","71.3","78.8","29.94","340","0","0","1.08","0.00"
"19:59:59","78.3","71.4","79.4","29.94","340","0","0","1.08","0.00"
"20:04:58","78.2","71.2","79","29.94","340","0","0","1.08","0.00"
"20:09:58","78.1","71.2","79.3","29.94","340","0","0","1.08","0.00"
"20:14:59","78","71.3","80","29.95","340","0","0","1.08","0.00"
"20:19:59","77.9","71.3","80.4","29.95","340","0","0","1.08","0.00"
"20:24:59","77.8","71.3","80.5","29.95","340","0","0","1.08","0.00"
"20:29:59","77.7","71","80.2","29.95","340","0","0","1.08","0.00"
"20:34:59","77.5","71.2","81","29.95","340","0","0","1.08","0.00"
"20:39:56","77.4","71.1","81","29.95","340","0","0","1.08","0.00"
"20:44:56","77.3","70.9","80.8","29.95","340","0","0","1.08","0.00"
"20:49:56","77.1","70.8","81","29.95","340","0","0","1.08","0.00"
"20:54:56","77.1","70.8","81","29.95","338","0.3","4.8","1.08","0.00"
"20:59:56","77.1","70.8","81","29.95","338","0","0","1.08","0.00"
"21:04:59","77","70.7","81","29.95","338","0","0","1.08","0.00"
"21:09:58","77","71.1","81.9","29.95","338","0.1","1.2","1.08","0.00"
"21:14:55","77.1","71.3","82.3","29.95","338","0.1","1.2","1.08","0.00"
"21:19:55","77","71.4","83","29.95","339","0","1.2","1.08","0.00"
"21:24:55","76.9","71.3","83","29.95","339","0.1","1.2","1.08","0.00"
"21:29:59","76.8","71.5","83.6","29.96","339","0","1.2","1.08","0.00"
"21:34:59","76.7","71.5","84","29.96","339","0.2","2.4","1.08","0.00"
"21:39:56","76.7","71.6","84.5","29.96","9","0.9","6","1.08","0.00"
"21:44:59","76.5","71.7","85","29.97","135","0.5","2.4","1.08","0.00"
"21:49:59","76.3","71.5","85","29.97","135","0","1.2","1.08","0.00"
"21:54:56","76.1","71.5","85.7","29.97","135","0.1","1.2","1.08","0.00"
"21:59:59","75.8","71.3","86","29.97","135","0.7","3.6","1.08","0.00"
"22:04:58","75.6","71.1","86","29.97","135","0","1.2","1.08","0.00"
"22:09:57","75.4","70.9","86","29.97","135","0","1.2","1.08","0.00"
"22:14:59","75.3","70.8","86","29.97","135","0","0","1.08","0.00"
"22:19:59","75.2","70.7","86","29.97","135","0","1.2","1.08","0.00"
"22:24:59","75","70.8","86.7","29.97","135","0","1.2","1.08","0.00"
"22:29:59","74.9","70.8","86.8","29.97","135","0","0","1.08","0.00"
"22:34:59","74.8","70.7","87","29.97","135","0","0","1.08","0.00"
"22:39:56","74.7","70.6","87","29.97","135","0.1","1.2","1.08","0.00"
"22:44:56","74.7","70.4","86.5","29.97","135","0.3","2.4","1.08","0.00"
"22:49:57","74.6","70.5","86.9","29.97","135","0.1","2.3","1.08","0.00"
"22:54:57","74.5","70.4","87","29.97","135","0","1.2","1.08","0.00"
"22:59:56","74.4","70.3","87","29.97","135","0","0","1.08","0.00"
"23:04:59","74.3","70.2","87","29.97","135","0","0","1.08","0.00"
"23:09:59","74.2","70.2","87.3","29.97","135","0","0","1.08","0.00"
"23:14:56","74.1","70.3","87.9","29.97","135","0","0","1.08","0.00"
"23:19:56","74","70.2","88","29.97","135","0.1","1.2","1.08","0.00"
"23:24:56","73.9","70.1","88","29.97","135","0.2","2.4","1.08","0.00"
"23:29:56","73.7","70.3","89","29.97","135","0.5","2.4","1.08","0.00"
"23:34:56","73.6","70.3","89.1","29.97","135","0","1.2","1.08","0.00"
"23:39:57","73.6","70.5","90","29.97","135","0","1.2","1.08","0.00"
"23:44:57","73.6","70.5","90","29.97","135","0","0","1.08","0.00"
"23:49:58","73.5","70.4","90","29.97","135","0","0","1.08","0.00"
